Regional Weather Roundup
Issued by NWS

Home | Current Version | Previous Version | Text Only | Print | Product List | Glossary Off
Versions: 1 2 3 4 5 6 7 8 9 10 11 12 13 14 15 16 17 18 19 20 21 22 23 24 25 26 27 28 29 30 31 32 33 34 35 36 37 38 39 40 41 42 43 44 45 46 47 48 49 50

062
ASUS45 KPSR 231210
RWRAZ

ARIZONA HOURLY REGIONAL WEATHER ROUNDUP
NATIONAL WEATHER SERVICE PHOENIX AZ
500 AM MST WED AUG 23 2017

NOTE: FAIR INDICATES FEW OR NO CLOUDS BELOW 12,000 FEET WITH NO
SIGNIFICANT WEATHER AND/OR OBSTRUCTIONS TO VISIBILITY.

AZZ001>003-036-231300-
NORTHWEST ARIZONA

CITY           SKY/WX    TMP DP  RH WIND       PRES   REMARKS
BULLHEAD CITY  CLEAR     86  52  30 NE3       29.84S
KINGMAN        PTCLDY    67  46  47 E3        30.07S
6HR MIN TEMP:  63; 6HR MAX TEMP:  71;

$$

AZZ004>008-015-016-018-231300-
NORTH CENTRAL ARIZONA

CITY           SKY/WX    TMP DP  RH WIND       PRES   REMARKS
GRAND CANYON   PTCLDY    51  47  86 NE8       30.32F
6HR MIN TEMP:  49; 6HR MAX TEMP:  55;

WILLIAMS       MOCLDY    52  46  82 S9        30.33S
PRESCOTT       PTCLDY    61  46  57 S8        30.20F
6HR MIN TEMP:  60; 6HR MAX TEMP:  68;

FLAGSTAFF      PTCLDY    49  43  80 CALM      30.35S
6HR MIN TEMP:  49; 6HR MAX TEMP:  53;

PAYSON           N/A     68  46  45 CALM      30.21S
PAGE           PTCLDY    73  45  36 CALM      30.14S
6HR MIN TEMP:  71; 6HR MAX TEMP:  80;

$$

AZZ009>014-017-231300-
NORTHEAST ARIZONA

CITY           SKY/WX    TMP DP  RH WIND       PRES   REMARKS
WINSLOW        PTCLDY    65  47  52 CALM      30.19S
6HR MIN TEMP:  63; 6HR MAX TEMP:  75;

SAINT JOHNS    MOCLDY    64  48  56 SW3       30.24S
6HR MIN TEMP:  62; 6HR MAX TEMP:  70;

WINDOW ROCK    CLEAR     51  46  83 CALM      30.34S
6HR MIN TEMP:  50; 6HR MAX TEMP:  58; 6HR PCP: TRACE;

SHOW LOW       MOCLDY    64  48  55 CALM      30.30S
$$

AZZ540-542>544-546-548-231300-
GREATER PHOENIX AREA

CITY           SKY/WX    TMP DP  RH WIND       PRES   REMARKS
PHOENIX        MOCLDY    89  59  36 CALM      29.87R
6HR MIN TEMP:  89; 6HR MAX TEMP:  98;

BUCKEYE        MOCLDY    82  57  42 CALM      29.88S
LUKE AFB       PTCLDY    85  53  33 CALM      29.87R
6HR MIN TEMP:  85; 6HR MAX TEMP:  93;

DEER VALLEY    PTCLDY    84  50  30 E5        29.90R
6HR MIN TEMP:  83; 6HR MAX TEMP:  92;

SCOTTSDALE     CLEAR     88  54  31 NE3       29.92S
6HR MIN TEMP:  87; 6HR MAX TEMP:  95;

MESA-GATEWAY   PTCLDY    82  61  47 E8        29.91S
$$

AZZ539-553-231300-
SOUTHWEST MARICOPA COUNTY AND PINAL COUNTY

CITY           SKY/WX    TMP DP  RH WIND       PRES   REMARKS
CASA GRANDE    CLEAR     84  60  44 S3        29.92F
6HR MIN TEMP:  81; 6HR MAX TEMP:  92;

GILA BEND      FAIR      84  56  37 CALM      29.87R
6HR MIN TEMP:  84; 6HR MAX TEMP:  95;

$$

AZZ503-504-507>509-231300-
SOUTHEAST ARIZONA

CITY           SKY/WX    TMP DP  RH WIND       PRES   REMARKS
TUCSON         CLEAR     97  59  28 SE6       30.02F
DAVIS-MONTHAN  CLEAR     78  60  52 SE5       30.01S
6HR MIN TEMP:  78; 6HR MAX TEMP:  85;

NOGALES        MOCLDY    70  60  70 CALM      30.12S
6HR MIN TEMP:  70; 6HR MAX TEMP:  77;

SIERRA VISTA   MOCLDY    69  57  66 W5        30.18S
6HR MIN TEMP:  69; 6HR MAX TEMP:  78;

DOUGLAS        MOCLDY    70  61  73 SE6       30.13F
6HR MIN TEMP:  69; 6HR MAX TEMP:  75;

SAFFORD        MOCLDY    74  54  49 SE7       30.03S
6HR MIN TEMP:  73; 6HR MAX TEMP:  87;

$$

AZZ532-231300-
SOUTHWEST ARIZONA

CITY           SKY/WX    TMP DP  RH WIND       PRES   REMARKS
YUMA           PTCLDY    88  68  51 S10       29.82S
6HR MIN TEMP:  87; 6HR MAX TEMP:  92;

$$

CAZ041-043-047-048-061-525>527-560>570-231300-
SOUTHERN CALIFORNIA

CITY           SKY/WX    TMP DP  RH WIND       PRES   REMARKS
DOWNTOWN L.A.  CLOUDY    69  63  81 W3        29.95S
6HR MIN TEMP:  68; 6HR MAX TEMP:  69;

L.A. AIRPORT   CLOUDY    68  64  87 W7        29.96S
6HR MIN TEMP:  68; 6HR MAX TEMP:  69;

SAN DIEGO      CLOUDY    69  64  84 NW7       29.97F
6HR MIN TEMP:  69; 6HR MAX TEMP:  70;

BURBANK        PTCLDY    64  60  87 CALM      29.96S FOG
6HR MIN TEMP:  63; 6HR MAX TEMP:  68;

ONTARIO        PTCLDY    65  61  87 W10       29.96F
6HR MIN TEMP:  64; 6HR MAX TEMP:  71;

RIVERSIDE      CLEAR     65  63  93 W6        29.96F
6HR MIN TEMP:  65; 6HR MAX TEMP:  70;

PALM SPRINGS   CLEAR     84  58  40 CALM      29.84S
6HR MIN TEMP:  83; 6HR MAX TEMP:  94;

EL CENTRO NAS  CLEAR     79  54  41 SE8       29.81R
6HR MIN TEMP:  79; 6HR MAX TEMP:  94;

IMPERIAL       CLEAR     84  52  33 CALM      29.79R
6HR MIN TEMP:  84; 6HR MAX TEMP:  92;

BLYTHE         PTCLDY    90  64  42 SW7       29.82S
6HR MIN TEMP:  89; 6HR MAX TEMP:  98;

NEEDLES        CLEAR     90  47  22 SE6       29.86S
6HR MIN TEMP:  87; 6HR MAX TEMP:  97;

$$

NVZ020-UTZ003-231300-
SOUTHERN NEVADA-UTAH

CITY           SKY/WX    TMP DP  RH WIND       PRES   REMARKS
LAS VEGAS      MOCLDY    84  46  26 SW3       29.96S
6HR MIN TEMP:  83; 6HR MAX TEMP:  93;

SALT LAKE CITY PTCLDY    70  54  56 S9        30.14R
6HR MIN TEMP:  69; 6HR MAX TEMP:  76; 6HR PCP: TRACE;

$$

NMZ009-TXZ055-231300-
NEW MEXICO-WEST TEXAS

CITY           SKY/WX    TMP DP  RH WIND       PRES   REMARKS
ALBUQUERQUE    CLOUDY    66  57  72 E8        30.28F
6HR MIN TEMP:  65; 6HR MAX TEMP:  71; 6HR PCP:  0.01;

EL PASO        MOCLDY    75  63  66 NE9       30.14R
6HR MIN TEMP:  74; 6HR MAX TEMP:  81;

$$


........................KEY........................
SKY/WX - SKY CONDITION/WEATHER
TMP    - TEMPERATURE IN FAHRENHEIT
DP     - DEW POINT IN FAHRENHEIT
RH     - RELATIVE HUMIDITY IN PERCENT
WIND   - DIRECTION AND SPEED IN MILES PER HOUR (MPH)
VRB    - VARIABLE WIND DIRECTION
PRES   - MEAN SEA LEVEL PRESSURE IN INCHES OF MERCURY
         F - FALLING PRESSURE   R - RISING PRESSURE
         S - STEADY PRESSURE
VSB    - VISIBILITY IN MILES
HX     - HEAT INDEX IN FAHRENHEIT
WCI    - WIND CHILL INDEX IN FAHRENHEIT
TC     - TEMPERATURE IN CELSIUS WHICH IS ALSO KNOWN AS
         TEMPERATURE IN CENTIGRADE
AFB    - AIR FORCE BASE
         LUKE AFB IS LUKE AIR FORCE BASE
         DAVIS-MONTHAN IS DAVIS-MONTHAN AIR FORCE BASE
NAS    - NAVAL AIR STATION
         EL CENTRO NAS IS EL CENTRO NAVAL AIR STATION
N/A    - NOT AVAILABLE





USA.gov is the U.S. government's official web portal to all federal, state and local government web resources and services.